RH
100 100 100 100 100 90 89 100 100 100 85 53 50 36 26 24 21 26 26 16 13 13 12 13 17 22 26 36 27 28 17 12 13 12 12 10 11 14 32 50 42 89 28 14 14
90 97 100 100 100 70 97 98 100 100 58 47 54 40 35 26 22 26 26 15 14 13 12 15 27 32 39 37 35 28 18 18 26 14 12 21 40 48 53 56 64 18 16 31 66
100 100 100 100 99 76 83 100 100 72 55 51 57 41 36 28 25 27 27 15 14 12 14 23 39 47 45 45 46 66 35 32 25 24 75 95 89 100 100 64 36 25 17 99 100
95 100 100 100 99 95 91 100 85 63 52 66 63 45 30 28 25 30 27 14 16 14 18 39 45 46 60 64 61 54 79 52 32 93 100 100 100 100 90 41 37 54 100 100 100
78 99 100 100 100 100 100 100 96 72 62 70 65 56 28 24 25 30 27 16 17 15 20 51 56 69 100 76 73 89 100 73 90 100 100 100 100 100 100 86 69 100 100 100 100
87 100 100 100 100 100 100 100 97 86 78 84 73 54 28 27 24 32 28 18 18 16 21 53 65 84 100 99 93 97 91 100 100 100 100 100 99 100 100 100 100 100 100 100 100
92 100 100 100 100 100 100 100 100 99 88 76 66 41 28 32 31 31 29 18 19 18 26 59 83 95 100 100 100 99 100 100 100 100 100 100 100 100 65 100 100 100 100 100 100
85 100 100 100 100 100 100 100 100 100 88 87 68 44 25 41 37 34 30 18 20 20 29 68 89 100 92 100 100 100 100 100 100 100 100 100 100 100 100 100 93 99 100 100 100
100 100 100 100 100 100 100 100 100 100 86 85 62 46 26 30 38 37 28 18 20 21 39 69 88 97 100 97 100 100 100 100 100 90 100 100 100 100 100 100 92 96 100 100 100
100 100 100 100 100 100 100 100 85 76 93 83 62 49 31 29 39 34 31 18 22 23 34 72 79 88 100 100 100 96 100 100 100 96 97 100 100 100 100 98 71 65 84 100 100
100 100 100 100 99 100 100 100 96 71 89 77 67 52 32 27 36 30 31 19 24 28 31 60 81 86 100 97 100 100 92 100 100 100 89 93 100 100 96 99 100 100 95 100 100
100 100 100 100 100 100 100 96 76 78 96 73 72 56 33 26 32 28 30 24 19 30 31 60 87 89 85 95 100 100 98 100 90 100 100 73 82 100 93 98 100 100 93 99 84
100 100 100 100 98 98 92 85 93 92 100 86 72 56 37 29 30 28 29 30 17 31 34 44 86 75 82 96 100 100 82 92 82 86 90 88 95 95 92 88 100 100 96 96 75
100 100 100 100 100 100 98 99 100 100 100 80 71 55 39 28 32 30 30 30 17 25 36 42 67 75 76 91 93 95 100 95 100 100 100 100 98 85 94 93 85 97 75 100 100
100 100 100 100 100 100 100 100 100 100 100 81 70 52 40 27 32 33 31 31 19 19 41 46 63 71 75 100 90 100 100 99 95 100 98 84 84 82 100 100 99 100 99 99 81
100 100 100 100 100 100 100 100 100 100 100 90 71 51 38 27 29 35 37 33 18 18 39 51 57 58 77 90 96 88 90 97 100 97 82 89 85 78 85 82 63 87 93 97 77
100 100 100 100 100 100 100 100 100 100 100 86 62 39 36 27 31 43 39 37 22 17 20 51 59 73 81 83 97 87 76 87 87 81 76 72 78 64 65 78 72 60 44 25 35
100 100 100 100 100 100 100 100 100 100 90 72 55 42 40 31 29 43 44 42 26 20 16 34 57 73 90 95 98 100 88 85 94 88 66 86 78 70 78 79 56 26 20 30 39
91 100 100 100 100 100 100 94 90 78 66 62 56 53 46 33 29 48 48 42 29 22 18 17 55 53 73 98 100 83 92 76 72 94 78 94 92 91 68 37 28 35 34 44 47
71 93 100 100 100 100 99 92 78 69 50 41 42 54 55 37 28 41 54 47 32 23 20 17 30 60 54 72 91 82 85 100 100 99 90 67 64 51 42 63 62 79 55 35 32
73 77 100 89 82 84 93 100 87 71 51 39 43 51 58 43 27 47 50 44 34 25 25 17 20 46 42 48 60 66 66 64 74 95 56 41 34 24 26 54 69 48 43 59 63
90 63 96 71 70 78 81 71 86 66 62 60 51 53 58 39 34 51 53 44 35 28 25 23 20 21 24 31 34 66 74 54 79 53 41 29 25 39 53 66 44 75 71 59 56
100 88 84 46 65 75 59 64 87 66 71 59 58 62 55 38 46 42 53 47 34 30 28 28 43 31 22 28 24 30 32 35 41 37 48 51 52 65 46 34 57 62 62 67 71
99 68 99 35 92 93 61 80 98 68 57 54 55 50 49 39 49 44 69 51 33 33 26 41 50 55 61 46 40 54 51 48 55 77 79 81 62 36 31 64 61 56 58 60 63
60 52 66 94 99 99 76 99 100 53 56 59 61 60 52 45 54 70 83 34 29 33 33 55 62 54 55 62 70 96 92 94 90 92 86 61 40 24 58 67 78 73 56 52 50
36 55 66 99 100 93 84 88 89 82 91 82 88 77 61 70 78 91 60 30 36 36 48 59 62 43 30 38 47 54 61 67 58 52 33 25 27 32 80 87 87 72 71 78 80
17 49 81 100 100 90 100 100 100 100 91 72 87 72 62 56 54 91 60 42 48 39 60 60 53 40 24 22 23 29 26 23 25 24 33 32 50 76 84 78 75 78 80 75 65
Wind_Speed
51 55 57 53 56 52 49 49 49 52 57 62 68 71 67 72 75 73 77 65 56 46 32 23 20 22 25 22 24 37 44 39 36 35 39 34 37 40 40 43 46 46 43 40 39
55 56 59 53 54 51 48 45 47 56 58 61 67 68 69 73 72 76 75 63 52 42 29 22 19 16 16 20 29 35 37 33 37 29 23 28 34 37 43 44 46 43 29 26 24
56 57 56 60 56 52 51 48 50 57 58 61 67 68 69 72 71 74 75 61 51 41 28 23 17 13 17 21 30 32 30 34 29 25 22 27 28 32 35 36 26 24 27 28 19
57 57 62 66 57 56 56 51 54 57 58 61 65 69 68 69 71 73 71 55 48 36 25 22 16 12 19 21 30 31 30 28 24 28 29 30 33 35 33 24 29 30 34 36 29
60 56 60 68 61 57 58 54 54 57 57 60 66 69 66 70 69 72 68 54 46 31 22 19 12 7 17 16 24 27 27 24 22 31 31 31 36 40 32 26 39 33 34 42 45
65 58 59 63 65 57 57 55 53 55 57 61 65 65 63 68 69 70 65 51 44 28 20 18 7 11 16 12 12 20 26 25 27 33 35 40 32 36 33 35 38 35 41 49 48
67 62 58 59 63 56 56 57 53 54 57 60 62 59 62 67 69 67 64 48 41 28 19 18 9 10 23 23 16 12 14 29 34 36 36 36 33 26 30 47 42 37 45 50 46
66 61 56 56 55 53 58 54 55 56 60 58 59 58 59 64 66 63 60 46 36 28 20 12 13 12 22 26 26 23 28 29 32 36 37 37 31 28 28 27 38 40 43 46 52
63 61 60 57 54 58 61 58 56 56 57 56 57 56 57 62 63 61 56 41 32 26 21 10 15 16 17 21 24 27 32 34 32 38 41 35 27 28 24 24 26 32 37 46 47
63 63 61 50 52 53 54 53 56 57 55 55 57 56 55 59 60 59 53 39 31 25 20 8 9 20 22 23 30 28 37 38 35 36 34 34 26 22 21 25 29 30 36 52 56
62 62 65 62 56 55 57 54 54 54 54 55 57 56 55 57 60 56 51 38 29 25 18 11 11 18 25 26 29 30 34 37 35 29 26 33 24 22 25 26 27 29 31 43 55
65 64 64 56 56 58 56 54 59 57 53 55 57 53 53 56 58 55 49 40 27 24 18 13 11 16 23 28 30 29 38 35 31 29 29 27 29 29 31 26 25 24 27 34 41
69 70 69 68 69 67 66 60 59 54 54 54 55 53 53 55 57 53 50 38 25 20 17 14 12 18 21 22 28 31 27 26 24 27 25 26 27 27 31 32 31 31 29 31 36
70 69 68 67 65 66 65 62 57 52 53 53 52 53 52 56 56 52 50 39 26 18 15 13 12 15 17 20 28 28 26 25 26 26 28 27 26 26 30 30 30 33 37 33 30
71 64 67 64 64 66 64 61 58 55 50 52 52 53 51 52 54 52 50 40 26 19 13 12 17 16 14 20 28 28 27 30 27 25 26 28 27 29 25 25 27 32 34 35 38
76 72 64 63 67 61 61 61 57 56 52 52 52 52 50 52 53 48 48 41 26 19 15 14 15 17 14 18 22 31 30 26 26 24 23 25 25 26 29 31 30 30 33 37 39
78 75 72 68 70 65 65 63 59 52 57 53 52 48 48 51 50 46 45 41 28 22 17 18 13 13 13 17 20 28 28 30 30 31 29 27 26 27 26 28 30 32 30 30 32
84 77 73 73 70 69 71 66 54 53 58 55 51 47 50 52 49 44 43 41 27 24 20 17 17 15 14 15 18 25 31 32 31 32 31 29 27 23 26 29 32 30 26 27 29
91 84 77 77 72 72 69 58 47 53 61 54 49 49 51 48 49 43 41 39 28 22 23 20 22 18 15 19 25 27 25 26 25 29 30 28 26 25 28 28 28 30 26 22 23
93 90 83 85 79 79 72 52 48 60 60 53 51 51 50 48 50 42 38 36 32 23 24 23 21 26 20 22 24 26 26 27 29 29 31 27 26 30 27 26 27 28 25 22 22
98 93 86 90 86 84 65 56 58 64 61 57 53 50 51 49 43 41 38 35 32 25 23 22 23 31 26 25 21 22 27 27 28 31 33 32 27 29 26 24 24 25 22 20 22
102 95 91 96 89 80 66 58 60 65 62 59 55 54 47 44 44 41 39 38 33 26 25 21 23 26 26 24 23 26 34 32 32 32 34 34 28 26 22 20 20 22 25 25 24
104 100 97 105 90 74 68 62 66 70 62 59 52 51 50 46 46 43 38 39 33 28 27 23 23 23 23 23 25 25 25 25 27 30 31 30 27 21 22 18 21 23 24 24 28
110 108 101 107 85 77 69 64 66 69 64 59 51 53 50 49 47 42 40 41 33 26 27 25 22 19 20 21 19 20 22 22 24 28 29 30 26 22 19 19 22 25 27 29 30
119 108 101 96 83 76 69 63 68 71 64 59 53 52 50 51 43 42 43 39 35 26 24 23 25 21 23 21 20 20 26 26 27 31 31 29 28 21 21 21 24 29 32 32 34
115 109 100 95 88 84 79 69 70 73 63 53 49 50 51 48 45 45 47 41 35 28 22 24 24 23 24 25 23 25 27 31 30 30 31 29 27 20 19 25 30 34 34 36 37
106 108 98 97 94 88 75 66 66 69 64 57 49 51 49 47 42 46 47 39 34 29 23 27 25 23 24 24 25 25 33 28 29 29 28 27 24 26 29 32 34 35 37 40 44
Wind_Direction
275 280 277 277 280 286 294 300 310 313 313 314 320 323 326 329 329 334 328 333 330 325 312 297 278 262 250 246 219 207 210 215 223 226 230 237 235 227 223 228 235 235 242 247 251
277 279 280 276 281 285 291 299 306 308 308 312 319 323 326 328 331 336 330 333 331 327 319 306 288 257 243 234 205 203 206 199 211 216 231 221 221 220 220 223 228 243 242 209 219
273 276 277 278 277 284 288 291 297 299 306 311 317 321 324 328 330 338 332 334 334 330 324 317 293 261 231 204 196 192 197 196 200 193 193 197 209 205 210 218 227 226 198 187 200
272 276 280 279 277 281 286 288 292 299 307 309 315 320 323 327 330 337 332 336 334 334 330 325 307 252 205 192 192 191 193 198 194 175 188 190 190 194 209 220 183 185 190 190 183
269 270 282 278 274 278 283 285 294 299 304 307 313 318 323 327 330 336 335 338 337 336 333 326 313 211 192 201 197 191 200 193 190 185 193 188 194 203 199 185 172 176 191 189 187
268 270 278 281 274 276 280 285 291 296 301 305 313 317 322 326 332 336 335 340 337 336 330 325 279 180 190 198 187 195 204 198 205 204 197 192 186 189 182 181 180 180 192 190 198
263 267 276 277 272 273 278 285 289 295 299 304 312 318 321 327 331 336 334 339 338 335 334 326 238 195 186 184 192 196 194 191 190 187 183 193 192 186 186 186 191 192 197 197 209
260 263 273 277 270 273 280 284 292 296 296 302 310 315 320 328 331 337 334 337 338 337 336 318 220 205 194 187 181 193 195 182 180 183 187 189 195 195 198 209 201 198 200 207 214
260 261 270 269 273 276 280 284 287 291 293 301 309 313 318 324 329 336 334 334 335 338 342 307 212 197 202 191 186 185 184 184 193 193 195 187 196 219 214 215 206 207 216 221 217
259 259 263 266 271 275 277 278 283 285 290 299 305 309 315 322 328 333 338 333 334 340 341 291 229 197 199 200 195 196 190 196 198 200 203 190 201 228 224 229 228 234 223 220 223
261 263 265 263 265 268 273 275 279 283 290 298 302 306 313 319 325 329 341 335 331 339 339 315 224 201 203 207 203 205 205 203 199 202 204 204 225 241 240 240 235 238 230 218 223
253 254 256 256 261 263 266 272 276 281 288 295 298 303 309 317 322 329 341 337 327 331 333 321 257 221 217 212 206 201 198 207 206 211 210 214 217 225 226 228 230 236 231 235 230
255 254 254 255 258 261 267 272 275 280 286 291 296 300 307 314 319 325 336 337 321 326 327 308 264 243 229 222 210 207 213 215 223 211 225 223 226 235 229 239 245 249 240 235 239
250 252 251 256 261 261 266 267 270 276 281 288 291 296 305 311 314 322 328 338 319 315 311 295 267 262 255 241 219 213 213 216 214 219 217 230 232 237 238 243 244 243 249 248 249
247 244 249 250 255 258 262 264 266 270 277 284 287 293 302 310 312 317 326 339 320 308 301 285 264 263 252 241 224 207 213 224 227 228 229 232 242 241 240 243 251 253 256 262 261
243 243 241 244 249 252 255 258 261 267 275 279 282 290 299 304 309 316 327 336 315 309 294 282 261 256 250 248 235 221 219 222 227 231 235 239 244 246 247 250 246 245 252 254 259
238 240 241 240 246 250 253 257 261 269 272 275 278 289 293 302 307 312 323 331 323 307 293 283 285 269 252 246 230 233 234 229 236 237 245 246 249 255 249 254 257 248 251 252 254
235 234 238 241 244 247 251 256 262 266 267 269 276 288 289 298 302 308 316 327 327 312 294 276 264 261 247 244 235 234 236 233 238 247 250 251 262 255 261 254 261 261 257 254 255
232 233 237 241 242 244 248 252 258 260 264 270 276 282 287 292 298 302 311 325 323 310 290 278 268 256 247 239 238 241 240 243 246 253 255 255 257 255 261 263 263 267 268 261 259
230 232 233 239 240 243 245 249 256 259 264 269 273 276 283 288 294 297 309 324 317 302 287 275 261 260 250 251 246 249 244 247 249 252 261 255 252 259 247 258 267 266 270 274 276
226 229 234 237 239 241 244 247 252 257 263 267 270 275 279 290 291 295 305 320 312 304 286 273 252 254 259 255 255 263 262 247 248 260 267 263 258 258 257 259 255 262 265 265 267
227 227 232 236 238 242 243 246 248 254 258 264 271 275 277 286 284 292 300 314 305 297 277 270 263 256 259 263 256 254 261 268 259 263 262 263 260 261 259 250 252 244 253 257 263
226 228 229 232 234 239 241 246 247 254 258 261 265 270 277 285 280 288 299 311 302 291 275 270 268 266 262 248 255 260 263 259 255 254 255 263 262 257 260 250 238 247 259 269 271
225 225 229 232 231 235 239 239 243 248 252 258 264 270 274 274 276 284 296 307 298 290 274 277 268 267 264 259 259 261 263 256 255 257 257 261 266 259 256 243 252 257 261 263 270
225 225 225 233 236 235 237 239 242 250 253 255 260 264 265 268 276 285 289 297 297 290 275 269 272 269 267 267 261 258 262 261 260 259 259 262 265 257 249 258 263 269 271 275 273
224 224 225 228 232 231 229 232 240 244 247 249 251 256 263 265 273 282 291 296 295 286 267 266 257 267 271 267 263 257 259 257 258 258 263 271 269 261 259 265 267 273 285 287 289
225 221 221 224 229 230 231 229 236 240 244 248 248 254 258 263 274 279 285 294 293 283 264 264 261 263 260 259 263 258 258 263 264 265 267 265 254 257 259 262 269 277 281 284 289